Location: Crescent
(42.8242°N, 73.7329°W)
Time: 12:52:07
(UTC+00:00)

Explorer 7 - Pass Details

Date: 23 February 2026
Orbit: 430 x 540 km, 50.2° (Epoch: 17 March)

Event Time Altitude Azimuth Distance (km) Brightness Sun altitude
Rises 00:25:47 0° 295° (WNW) 2,525 11.5 -20.9°
Reaches altitude 10° 00:28:01 10° 286° (WNW) 1,664 10.4 -21.3°
Maximum altitude 00:31:29 35° 220° (SW) 809 7.9 -21.9°
Enters shadow 00:32:26 30° 188° (S) 907 7.9 -22.1°
Drops below altitude 10° 00:35:04 10° 153° (SSE) 1,719 - -22.6°
Sets 00:37:25 0° 145° (SE) 2,621 - -23.0°
